Simultaneous Nadir Overpasses (SNOs) Predictions

Prediction of SNOs between GOES-16 and TERRA Satellite Orbit:

Table of predicted SNOs for the next 14.0 days since TLE Epoch: 7/29/2023
Index Date Time (GOES-16) GOES-16 Lat,Lon TERRA Lat,Lon Distance(km) Time Diff (sec)
1 07/30/2023 14:54:35 0.01, -75.21 -0.58, -72.46 313.35 80
2 07/31/2023 03:14:54 -0.01, -75.21 -0.50, -77.39 248.65 80
3 08/02/2023 02:55:55 -0.00, -75.21 0.39, -73.45 200.14 80
4 08/02/2023 15:16:07 0.00, -75.22 0.65, -78.36 356.94 80
5 08/04/2023 15:02:27 0.00, -75.24 -0.19, -74.42 93.22 80
6 08/05/2023 03:22:45 -0.00, -75.24 -0.87, -79.35 468.00 80
7 08/07/2023 03:06:24 -0.00, -75.26 -0.06, -75.40 17.06 80
8 08/09/2023 02:47:24 -0.00, -75.29 0.83, -71.47 435.15 80
9 08/09/2023 15:07:36 -0.00, -75.30 0.20, -76.38 121.37 80
10 08/11/2023 14:53:54 -0.00, -75.34 -0.59, -72.42 331.11 80
